Location: Arboyeti
(42.1122°N, 44.6017°E)
Time: 20:59:23
(UTC+00:00)

CZ-4B R/B - Pass Details

Date: 19 April 2021
Orbit: 702 x 803 km, 98.9° (Epoch: 17 May)

Event Time Altitude Azimuth Distance (km) Brightness Sun altitude
Rises 23:32:59 0° 21° (NNE) 3,101 7.7 -26.0°
Reaches altitude 10° 23:35:21 10° 28° (NNE) 2,181 6.8 -25.7°
Maximum altitude 23:39:52 42° 99° (E) 1,019 4.3 -25.1°
Enters shadow 23:41:23 32° 142° (SE) 1,214 4.4 -24.9°
